Погода в Саулкрасты

Латвия     57°15′24″N   24°25′03″E
темп.,
°C
ветер,
м/с
пор.,
м/с
влажн.,
%
обл.,
%
осадки,
мм/ч
давл.,
гПа
погр.,
м
20 июня, вс
вс2000:00+19ююв36840 0.0 1017104
03:00+18ююв38882 0.0 1018153
06:00+19ююв410825 0.0 1017243
09:00+24ю466530 0.0 1017417
12:00+28ююз46485 0.0 10171586
15:00+29юз464210 0.0 10162155
18:00+29ююз46445 0.0 10151839
21:00+25ю36710 0.0 1015157
21 июня, пн
пн2100:00+21ююв36850 0.0 101595
03:00+20ююв39890 0.0 1015222
06:00+20ююв39890 0.0 1015269
09:00+25ююв47670 0.0 1014549
12:00+29ю47475 0.0 10141485
15:00+31ю46350 0.0 10131839
18:00+31ю25380 0.0 10131768
21:00+26юв37645 0.0 1013199
22 июня, вт
вт2200:00+22юв311715 0.0 1013267
03:00+20юв310785 0.0 1013238
06:00+21юв398399 0.0 1012262
09:00+25ююв476817 0.2 1012608
12:00+27ююв576659 1.4 10111114
15:00+29ююз575060 1.9 10111909
18:00+27ююз4660100 0.3 1012953
21:00+23ююз258781 1.3 1012110
23 июня, ср
ср2300:00+20ююз2295100 1.0 101328
03:00+18сз229898 1.2 101437
06:00+17с2497100 1.3 1015101
09:00+19зсз119098 1.6 1015156
12:00+23сз32673 0.1 1016521
15:00+22ссз34804 0.8 1016226
18:00+22сз237111 2.4 1016128
21:00+19ссз357221 2.9 101698
24 июня, чт
чт2400:00+18св22740 0.0 101733
03:00+17св23775 0.0 101657
06:00+18всв258399 0.0 1016119
09:00+21з2293100 2.8 1016249
12:00+24в3580100 0.3 1016287
15:00+26ююв3681100 3.2 1015459
18:00+28юз355929 0.9 10141360
21:00+21сз0093100 2.0 101515